St. Joseph, KS

8:45 PM CDT on June 23, 2017 (GMT -0500)
Rosecrans Memorial

Weather History for KSTJ - February, 2012

Change the Weather History Date:

Thursday, February 9, 2012

  Actual Average Record
Temperature  
Mean Temperature 35 °F 30 °F  
Max Temperature 40 °F 41 °F 64 °F (1932)
Min Temperature 29 °F 20 °F -21 °F (1979)
Degree Days  
Heating Degree Days 30 35  
Month to date heating degree days 243 319  
Since 1 July heating degree days 3139 3702  
Cooling Degree Days 0 0  
Month to date cooling degree days 0 0  
Year to date cooling degree days 0 0  
Moisture  
Dew Point 27 °F    
Average Humidity 75    
Maximum Humidity 85    
Minimum Humidity 64    
Precipitation  
Precipitation 0.00 in 0.03 in 0.44 in (2001)
Month to date precipitation 1.18 0.26  
Year to date precipitation 1.36 0.82  
Sea Level Pressure  
Sea Level Pressure 30.24 in    
Wind  
Wind Speed 6 mph (South)    
Max Wind Speed 15 mph    
Max Gust Speed 18 mph    
Visibility 9 miles    
Events      
T = Trace of Precipitation, MM = Missing Value Source: NWS Daily Summary

Daily Weather History Graph

Daily Weather History Graph

Search for Another Location

Airport or City:

Trip Planner

Search our weather history database for the weather conditions in past years. The results will help you decide how hot, cold, wet, or windy it might be!

Date:

Astronomy

Feb. 09, 2012 Rise Set
Actual Time 7:19 AM CST 5:48 PM CST
Civil Twilight 6:51 AM CST 6:16 PM CST
Nautical Twilight 6:20 AM CST 6:48 PM CST
Astronomical Twilight 5:48 AM CST 7:19 PM CST
Moon 8:17 PM CST (2/9) 7:56 AM CST (2/9)
Length of Visible Light 11h 24m
Length of Day
10h 28m
Waning Gibbous, 96% of the Moon is Illuminated
Feb 9
Waning Gibbous
Feb 14
Last Quarter
Feb 21
New
Feb 29
First Quarter
Mar 8
Full

Hourly Weather History & Observations

Time (CST) Temp. Windchill Dew Point Humidity Pressure Visibility Wind Dir Wind Speed Gust Speed Precip Events Conditions
12:53 AM 28.9 °F 23.9 °F 19.9 °F 69% 30.40 in 10.0 mi SE 4.6 mph - N/A   Overcast
1:53 AM 28.9 °F 25.2 °F 19.9 °F 69% 30.38 in 10.0 mi SSE 3.5 mph - N/A   Overcast
2:53 AM 28.9 °F 25.2 °F 19.9 °F 69% 30.37 in 10.0 mi East 3.5 mph - N/A   Overcast
3:53 AM 28.9 °F 25.2 °F 19.9 °F 69% 30.36 in 10.0 mi ESE 3.5 mph - N/A   Overcast
4:53 AM 28.9 °F 23.9 °F 21.0 °F 72% 30.34 in 10.0 mi SSE 4.6 mph - N/A   Overcast
5:53 AM 28.9 °F 23.9 °F 21.9 °F 75% 30.34 in 10.0 mi South 4.6 mph - N/A   Overcast
6:39 AM 28.4 °F 24.6 °F 23.0 °F 80% 30.30 in 10.0 mi SSE 3.5 mph - N/A   Overcast
6:53 AM 28.9 °F 21.9 °F 23.0 °F 78% 30.33 in 10.0 mi SSE 6.9 mph - N/A   Overcast
7:39 AM 30.2 °F 24.3 °F 24.8 °F 80% 30.30 in 10.0 mi South 5.8 mph - N/A   Overcast
7:53 AM 30.0 °F 24.1 °F 24.1 °F 79% 30.33 in 10.0 mi South 5.8 mph - N/A   Overcast
8:51 AM 30.2 °F 25.4 °F 26.6 °F 86% 30.30 in 7.0 mi SSE 4.6 mph - N/A   Overcast
8:53 AM 30.0 °F 25.2 °F 27.0 °F 88% 30.33 in 7.0 mi South 4.6 mph - N/A   Overcast
9:15 AM 30.2 °F 24.3 °F 26.6 °F 86% 30.30 in 7.0 mi South 5.8 mph - N/A   Overcast
9:53 AM 32.0 °F 24.8 °F 28.0 °F 85% 30.32 in 8.0 mi SSW 8.1 mph - N/A   Overcast
10:51 AM 33.8 °F 27.7 °F 28.4 °F 81% 30.28 in 8.0 mi SSW 6.9 mph - N/A   Overcast
10:53 AM 33.1 °F 26.9 °F 28.9 °F 85% 30.30 in 8.0 mi SSW 6.9 mph - N/A   Overcast
11:35 AM 33.8 °F 26.4 °F 28.4 °F 81% 30.25 in 8.0 mi SSW 9.2 mph - N/A   Overcast
11:53 AM 35.1 °F 27.9 °F 30.0 °F 82% 30.26 in 8.0 mi SSW 9.2 mph - N/A   Overcast
12:53 PM 37.0 °F 29.8 °F 30.0 °F 76% 30.22 in 10.0 mi SSW 10.4 mph - N/A   Overcast
1:06 PM 37.4 °F 29.8 °F 30.2 °F 75% 30.19 in 10.0 mi SSW 11.5 mph - N/A   Overcast
1:50 PM 37.4 °F 29.3 °F 30.2 °F 75% 30.17 in 10.0 mi SSW 12.7 mph - N/A   Overcast
1:53 PM 37.9 °F 30.0 °F 30.0 °F 73% 30.19 in 10.0 mi SSW 12.7 mph - N/A   Overcast
2:53 PM 39.0 °F 31.8 °F 28.9 °F 67% 30.18 in 10.0 mi SSW 11.5 mph - N/A   Overcast
3:53 PM 39.0 °F 31.8 °F 30.0 °F 70% 30.17 in 10.0 mi SSW 11.5 mph - N/A   Overcast
4:53 PM 39.0 °F 34.0 °F 30.0 °F 70% 30.14 in 10.0 mi SSW 6.9 mph - N/A   Overcast
5:53 PM 37.9 °F 32.7 °F 30.0 °F 73% 30.14 in 10.0 mi SSW 6.9 mph - N/A   Overcast
6:53 PM 37.0 °F 31.6 °F 30.0 °F 76% 30.14 in 10.0 mi SSW 6.9 mph - N/A   Overcast
7:53 PM 35.1 °F 31.0 °F 28.9 °F 78% 30.14 in 10.0 mi South 4.6 mph - N/A   Overcast
8:53 PM 35.1 °F 31.0 °F 30.0 °F 82% 30.13 in 10.0 mi South 4.6 mph - N/A   Overcast
9:48 PM 35.6 °F - 30.2 °F 81% 30.11 in 9.0 mi Calm Calm - N/A   Overcast
9:53 PM 36.0 °F - 30.0 °F 79% 30.13 in 9.0 mi Calm Calm - N/A   Overcast
10:53 PM 36.0 °F 33.3 °F 30.9 °F 82% 30.12 in 9.0 mi South 3.5 mph - N/A   Overcast
11:53 PM 36.0 °F 31.1 °F 30.9 °F 82% 30.11 in 8.0 mi SSW 5.8 mph - N/A   Overcast